Location: Newark
(20.5800°N, 87.1197°W)
Time: 10:16:52
(UTC+00:00)

Hubble Space Telescope - Visible Passes

Search period start: 16 July 2019 00:00
Search period end: 26 July 2019 00:00
Orbit: 536 x 540 km, 28.5° (Epoch: 15 July)

Date Brightness Start Highest point End Pass type
(mag) Time Alt. Az. Time Alt. Az. Time Alt. Az.
23 Jul 3.2 09:21:14 13° SE 09:21:14 13° SE 09:22:28 10° ESE visible
23 Jul 1.0 10:57:13 10° WSW 11:01:18 63° SSE 11:05:23 10° ENE visible
24 Jul 3.2 09:11:19 15° ESE 09:11:19 15° ESE 09:12:41 10° ESE visible
24 Jul 0.8 10:46:39 10° WSW 10:50:46 83° SSE 10:54:54 10° ENE visible
25 Jul 3.2 09:01:22 16° ESE 09:01:22 16° ESE 09:02:37 10° E visible
25 Jul 0.8 10:36:43 14° WSW 10:40:15 77° NNW 10:44:23 10° ENE visible
